Wind_Speed
11 13 12 11 11 11 11 12 12 11 12 12 12 13 16 17 17 15 14 13 12 12 11 10 9 8 6 4 3 3 4 4 5 6 7 9 12 13 15 14 16 15 16
17 14 11 9 9 10 9 10 10 9 10 10 10 11 12 14 14 13 12 11 11 10 10 9 8 7 5 4 3 3 3 3 4 6 8 9 10 13 16 15 16 16 15
21 14 11 9 8 8 8 8 9 8 8 8 8 8 9 10 11 12 11 10 9 8 9 7 6 6 5 4 3 2 2 3 5 6 8 10 12 12 15 14 15 16 16
17 14 12 9 7 7 7 7 7 6 7 6 6 5 6 7 8 10 10 10 9 8 7 6 6 6 6 6 4 3 2 2 4 6 7 9 12 10 9 11 14 15 16
14 11 10 8 7 7 6 6 6 5 5 5 4 4 4 4 5 6 7 8 9 9 8 7 7 7 7 7 6 5 4 4 5 7 6 8 9 10 9 10 14 14 16
11 8 7 7 5 5 5 6 5 4 3 4 3 4 4 4 5 6 7 7 8 8 9 9 9 9 8 9 8 7 6 5 4 7 8 8 10 10 9 12 15 16 16
12 10 8 6 5 3 2 2 3 3 2 2 3 4 5 6 7 8 9 10 10 11 11 10 10 11 11 11 10 10 9 7 7 7 9 11 10 14 14 15 17 17 18
18 13 10 7 4 2 1 1 1 1 2 3 3 5 6 7 9 10 11 12 13 13 14 13 14 14 14 14 13 13 11 10 10 9 9 12 14 16 15 17 17 17 17
21 17 14 10 7 3 1 2 2 1 3 3 3 4 6 7 9 10 11 12 14 16 16 17 17 19 18 18 16 15 15 13 13 13 12 12 11 11 18 18 18 18 19
20 16 13 12 10 10 6 2 1 2 2 2 3 4 5 6 8 9 11 12 13 16 18 18 20 22 22 21 20 18 17 15 15 16 15 15 16 14 20 21 21 22 22
23 20 16 14 13 11 9 6 3 1 3 4 5 6 5 6 7 7 7 9 11 13 15 16 19 22 24 23 22 20 18 18 17 17 17 17 16 17 19 23 22 24 24
22 21 17 14 13 11 13 11 9 8 7 6 8 8 5 5 2 3 4 4 6 9 10 12 15 19 19 21 21 19 19 19 20 19 18 19 18 18 18 22 23 25 27
20 18 16 14 13 12 11 12 11 10 10 9 9 8 7 6 7 8 10 10 10 12 13 13 13 14 14 16 16 20 19 24 22 20 19 20 21 21 21 24 27 27 28
18 17 15 13 13 14 12 13 13 14 14 14 13 11 12 11 11 11 10 11 11 12 12 14 14 13 13 11 13 23 25 19 13 16 23 22 26 27 27 25 27 31 31
18 16 16 15 16 16 16 15 16 16 17 17 16 15 14 13 12 11 11 10 10 10 11 11 11 10 12 11 7 14 19 18 21 28 36 42 39 27 28 28 26 30 34
17 17 15 16 16 15 17 17 17 17 17 18 19 19 17 15 14 13 12 12 11 11 11 9 10 9 8 10 9 14 16 21 26 28 35 38 39 29 29 31 29 30 34
17 16 17 17 16 17 18 17 16 16 16 17 18 17 16 15 14 14 15 15 15 13 11 9 9 8 7 7 10 15 19 24 24 30 34 37 34 31 31 27 27 28 32
18 17 17 17 18 20 20 18 17 16 16 17 17 17 17 17 16 16 17 17 16 15 15 14 14 11 9 10 13 16 18 20 21 25 31 36 33 30 33 31 27 29 33
18 18 17 16 18 20 21 20 18 16 16 15 15 15 15 15 16 16 17 18 17 17 16 17 16 17 16 16 18 18 19 22 20 19 20 26 32 32 28 28 23 26 30
17 15 15 15 17 21 22 20 16 15 15 14 14 15 14 15 15 16 16 18 18 18 18 18 17 15 11 21 23 21 21 22 23 22 24 25 27 32 36 30 27 28 28
16 14 12 13 14 18 19 17 13 15 14 14 15 15 16 17 18 18 18 17 17 18 19 20 21 19 13 22 14 14 18 17 20 21 23 24 24 24 28 31 35 36 34
16 14 13 12 10 11 10 13 10 13 14 13 13 15 16 16 16 17 17 17 18 18 18 19 21 20 12 20 11 6 5 8 6 8 10 15 21 21 20 18 18 21 23
16 15 15 12 12 12 13 15 17 14 12 13 15 15 17 17 17 16 15 15 16 16 17 16 18 18 14 13 14 5 4 3 9 8 2 7 5 6 8 9 8 8 8
17 17 16 14 14 13 12 12 13 14 14 12 12 13 15 16 16 15 15 14 13 13 15 14 14 14 15 13 11 9 9 9 3 7 10 11 14 18 19 22 21 18 15
19 18 17 16 14 13 13 13 17 18 15 12 12 13 15 16 16 15 14 14 13 12 12 12 14 14 12 11 10 12 10 14 13 6 9 10 26 20 28 21 25 26 23
19 17 15 15 15 13 14 14 17 16 14 14 13 14 15 15 16 16 16 15 14 13 13 12 11 11 12 11 12 10 9 6 12 8 7 15 15 18 27 28 23 23 21
Wind_Direction
175 166 161 156 155 148 145 143 140 136 123 110 107 109 115 129 140 146 147 150 149 147 148 149 152 150 144 127 117 74 66 73 94 109 121 141 147 149 144 152 149 147 149
166 159 153 156 158 150 146 145 141 138 128 119 113 116 118 126 135 140 144 147 151 152 150 150 153 153 149 153 148 102 87 85 109 134 143 149 155 155 156 159 156 153 156
152 150 148 154 156 148 147 148 148 145 140 131 126 125 127 131 136 141 147 152 156 160 158 159 163 169 173 172 167 139 123 124 140 158 156 165 168 169 165 165 162 162 158
149 148 146 145 142 140 147 154 151 149 154 148 142 138 143 148 152 154 160 166 170 178 184 186 183 174 170 184 190 187 182 157 157 161 169 181 183 180 182 172 174 171 167
143 143 135 130 129 128 132 141 150 156 160 164 173 178 181 185 185 179 179 185 189 195 207 213 216 202 193 202 209 206 210 200 175 184 186 190 203 205 213 203 188 181 179
131 137 131 120 130 122 130 144 153 153 169 192 211 221 223 227 228 227 219 215 219 220 223 230 236 236 223 216 220 227 232 234 216 207 219 235 229 220 221 201 195 191 186
104 106 108 111 111 107 133 139 144 160 186 229 253 261 257 254 252 248 248 243 237 237 238 241 247 248 244 241 238 239 244 249 251 239 232 241 236 219 220 212 204 198 193
100 93 90 93 97 122 158 167 307 311 290 281 278 271 266 264 263 260 258 258 256 252 251 248 251 251 251 253 255 253 248 252 257 258 248 245 266 227 220 223 217 209 203
86 84 77 76 77 74 198 212 204 293 307 310 307 298 291 284 279 277 276 274 273 269 262 257 254 255 254 251 254 257 255 252 257 258 255 244 247 235 213 222 223 220 214
77 74 67 61 59 38 20 360 333 338 330 314 299 289 286 289 293 293 295 289 283 284 283 279 273 265 262 258 260 260 259 258 259 263 262 257 248 254 231 226 225 224 219
67 61 57 55 58 59 50 50 51 22 27 353 346 331 313 302 299 298 302 303 308 299 286 274 271 272 274 270 266 261 261 266 266 269 271 267 266 268 240 232 231 228 226
65 60 55 55 52 54 53 63 68 59 40 39 35 18 42 49 26 28 5 346 345 335 324 307 288 276 271 267 268 261 254 252 257 261 267 272 270 260 250 236 237 232 230
81 78 70 63 58 55 55 59 64 60 58 46 38 23 23 28 29 34 31 18 3 6 3 348 343 329 319 290 259 252 258 251 245 248 260 273 269 261 253 240 238 241 236
91 84 86 83 80 72 69 68 74 71 70 64 52 38 29 31 34 34 27 12 3 2 8 1 355 343 335 322 269 240 223 221 239 260 267 256 260 251 244 236 238 242 239
97 91 86 90 87 86 83 79 72 67 59 57 48 40 33 26 27 32 31 24 21 19 22 4 358 357 354 337 298 223 212 239 235 232 249 238 243 242 254 239 237 240 239
104 94 90 92 95 94 91 85 80 71 63 56 51 45 40 33 27 22 21 18 17 10 10 354 358 351 341 320 274 240 229 242 258 244 234 247 246 246 251 241 229 231 236
107 105 98 104 108 103 105 97 87 79 69 61 55 49 44 41 36 32 25 21 15 8 359 352 338 342 332 308 287 275 269 268 259 254 252 242 243 254 259 250 236 221 232
120 116 115 110 105 114 114 109 97 84 75 66 56 48 45 41 35 29 27 22 15 9 4 3 356 346 335 320 303 287 282 285 281 264 253 243 250 264 259 246 233 220 224
129 128 121 118 107 115 120 115 100 87 76 64 55 46 38 34 27 21 21 17 12 8 5 1 360 355 342 327 313 295 284 279 279 273 261 257 260 248 261 254 255 238 231
124 124 124 124 121 123 122 119 105 86 74 62 54 46 35 27 20 16 13 10 9 6 3 357 357 356 348 335 322 305 287 279 276 269 262 263 262 249 253 267 260 253 250
124 122 120 129 130 137 130 120 109 81 69 60 49 39 31 23 16 14 14 11 12 12 10 6 358 355 1 353 345 324 301 284 275 269 266 268 267 260 261 265 258 267 263
126 117 113 105 113 134 142 126 104 93 75 68 55 41 31 25 25 21 19 18 15 12 11 11 10 7 358 9 356 310 326 329 313 290 289 273 274 280 279 278 275 271 269
124 114 104 100 97 109 121 118 116 102 88 65 50 47 41 36 35 34 31 26 21 21 18 17 8 12 2 356 11 14 339 317 332 323 337 15 3 350 336 350 347 337 312
126 117 109 101 96 93 107 121 110 97 86 75 66 60 50 46 45 40 34 32 32 29 20 16 13 11 7 359 0 351 347 312 312 315 318 323 335 337 330 329 327 326 326
130 124 117 107 99 97 98 101 99 97 94 88 77 69 58 51 48 43 38 32 32 35 35 31 22 16 13 10 2 352 338 327 289 284 292 314 327 325 329 330 328 323 321
131 125 122 115 101 96 95 94 89 92 90 83 75 67 61 53 48 40 38 42 46 47 45 37 37 24 17 11 4 11 6 351 340 325 310 310 305 317 326 323 320 321 326
Height
775 778 780 781 782 782 783 782 782 783 783 784 785 787 788 790 793 796 798 799 800 800 800 801 802 803 805 806 807 807 807 807 807 806 807 807 807 808 809 810 811 812 813
776 779 781 784 785 785 785 785 786 787 787 787 788 789 790 791 793 796 799 800 801 802 802 802 804 805 806 806 806 808 807 808 808 808 808 810 811 810 811 812 813 814 814
778 781 782 784 786 786 787 788 788 789 790 790 791 791 792 793 794 796 798 800 802 803 803 804 804 806 807 807 808 808 808 808 809 809 809 810 812 812 812 813 814 815 817
780 781 781 784 786 787 788 789 790 791 791 791 792 793 793 794 795 796 798 800 801 803 804 804 804 805 807 807 807 808 809 809 809 810 811 811 811 814 815 815 816 816 818
781 783 784 785 787 787 788 790 790 791 792 793 793 793 794 796 797 798 799 799 800 801 803 804 805 804 805 806 806 808 809 809 809 811 812 812 813 813 815 815 817 817 818
785 786 786 786 789 788 790 789 790 791 792 792 793 794 795 796 797 799 799 800 800 801 802 803 804 805 805 805 806 807 808 809 810 811 812 813 813 815 814 815 814 816 817
786 786 787 788 789 790 791 791 791 791 792 793 793 794 795 796 796 797 798 799 799 799 801 803 804 804 805 806 806 805 807 809 810 810 811 811 812 811 813 814 814 814 815
785 787 788 788 790 791 791 792 793 793 794 794 794 794 794 795 795 796 797 798 798 798 800 801 802 803 803 804 806 806 806 808 809 810 809 809 809 810 813 814 814 814 816
787 788 789 790 791 791 791 792 792 793 794 793 793 793 794 794 795 795 796 796 797 797 797 798 798 799 801 801 802 805 805 806 806 807 807 806 806 807 808 810 812 814 815
790 791 792 793 792 792 793 793 793 793 792 792 792 792 792 793 793 794 795 795 795 795 796 796 795 797 797 799 801 803 803 804 804 804 805 805 805 807 808 808 809 811 814
792 793 794 795 795 795 794 794 795 794 794 794 793 793 793 792 792 792 793 793 793 793 793 792 792 792 794 796 798 799 801 802 802 802 802 803 803 804 806 807 808 808 811
793 795 796 797 797 797 796 795 795 795 795 795 795 795 793 793 792 792 792 791 791 792 791 788 788 788 789 790 793 794 796 796 796 796 797 799 800 801 802 804 806 805 807
796 795 795 796 798 798 797 796 797 798 797 796 796 796 795 794 792 791 791 790 789 789 788 787 786 785 786 785 785 785 789 793 792 791 792 794 795 796 796 798 799 802 803
796 797 796 795 795 796 797 797 798 798 798 798 798 798 797 795 793 792 790 790 789 788 787 786 786 784 783 781 780 781 783 785 788 788 787 783 784 786 788 790 793 795 798
795 797 796 796 797 797 796 798 800 800 800 799 799 798 797 797 796 794 792 790 789 788 786 785 786 784 782 780 778 779 779 779 776 772 772 774 773 776 783 782 785 788 794
796 796 797 796 795 796 797 799 801 801 801 801 800 799 799 798 797 796 793 790 788 788 786 784 784 782 781 781 780 779 777 775 774 770 768 772 768 773 774 776 775 779 786
795 796 797 797 797 797 798 800 801 801 802 802 802 801 800 799 798 796 794 792 790 787 785 783 781 779 778 778 777 776 774 772 769 768 769 767 767 767 771 770 770 773 780
796 799 800 802 800 799 799 801 802 802 803 803 804 804 802 800 800 798 796 794 791 788 786 784 780 777 776 775 773 771 768 766 764 763 762 762 763 764 766 767 768 768 773
796 798 800 803 803 802 802 803 804 805 804 805 804 804 803 801 799 798 796 795 792 789 786 783 782 779 775 772 769 766 763 761 760 760 758 758 758 760 761 762 763 766 769
799 801 800 802 805 804 803 805 807 806 805 806 805 804 803 801 799 797 795 794 792 789 786 784 782 780 777 773 767 761 758 755 755 754 754 754 753 754 756 759 760 763 764
801 803 805 805 806 808 806 804 806 809 809 808 808 807 805 803 801 798 796 793 790 788 787 784 782 779 777 773 767 759 754 752 750 749 750 750 750 751 754 755 757 758 759
804 805 807 809 809 809 809 807 809 812 813 812 810 808 808 807 803 801 799 796 793 790 787 785 783 781 780 779 778 773 763 752 748 746 747 748 749 751 753 754 754 754 755
807 808 809 812 811 810 810 809 809 812 814 814 814 812 810 810 808 804 801 799 797 793 791 789 787 785 784 783 782 782 776 768 763 748 747 748 748 749 750 750 751 751 752
808 808 811 814 814 815 813 812 810 813 816 819 818 817 814 812 810 808 806 802 799 796 795 792 790 788 787 785 784 784 785 784 777 764 749 749 749 750 749 749 748 750 751
808 810 811 813 816 815 815 815 812 815 817 819 820 819 817 816 814 811 807 805 802 800 797 795 792 791 789 788 788 786 785 783 781 778 760 750 748 751 753 751 750 749 748
810 812 813 814 816 818 820 818 815 818 820 821 821 821 818 819 817 814 812 806 805 803 801 798 794 794 791 789 789 788 787 787 784 782 773 762 759 752 751 751 750 749 748